Weather History for Defiance, OH

Change the Weather History Date:

Sunday, November 11, 2012

  Actual Average Record
Temperature  
Mean Temperature 60 °F -  
Max Temperature 68 °F 49 °F 70 °F (1949)
Min Temperature 51 °F 31 °F 18 °F (1952)
Degree Days  
Heating Degree Days 6    
Growing Degree Days 10 (Base 50)    
Moisture  
Dew Point 42 °F    
Average Humidity 53    
Maximum Humidity 68    
Minimum Humidity 39    
Precipitation  
Precipitation 0.00 in - - ()
Sea Level Pressure  
Sea Level Pressure 30.07 in    
Wind  
Wind Speed 12 mph (South)    
Max Wind Speed 21 mph    
Max Gust Speed 33 mph    
Visibility 10 miles    
Events      
Averages and records for this station are not official NWS values.
T = Trace of Precipitation, MM = Missing Value Source: NWS Daily Summary

Daily Weather History Graph

Daily Weather History Graph

Search for Another Location

Airport:

Trip Planner

Search our weather history database for the weather conditions in past years. The results will help you decide how hot, cold, wet, or windy it might be!

Date:

Astronomy

Nov. 11, 2012 Rise Set
Actual Time 7:21 AM EST 5:21 PM EST
Civil Twilight 6:52 AM EST 5:50 PM EST
Nautical Twilight 6:19 AM EST 6:23 PM EST
Astronomical Twilight 5:46 AM EST 6:56 PM EST
Moon 4:33 AM EST (11/11) 3:45 PM EST (11/11)
Length of Visible Light 10h 58m
Length of Day
9h 59m
Waning Crescent, 7% of the Moon is Illuminated
Nov 11
Waning Crescent
Nov 13
New
Nov 20
First Quarter
Nov 28
Full
Dec 6
Last Quarter

Hourly Weather History & Observations

Time (EST) Temp. Dew Point Humidity Pressure Visibility Wind Dir Wind Speed Gust Speed Precip Events Conditions
12:53 AM 55.9 °F 44.1 °F 64% 30.08 in 10.0 mi SSW 10.4 mph - N/A   Clear
1:53 AM 57.0 °F 43.0 °F 59% 30.09 in 10.0 mi SSW 10.4 mph - N/A   Clear
2:53 AM 55.0 °F 42.1 °F 62% 30.10 in 10.0 mi SSW 9.2 mph - N/A   Clear
3:53 AM 55.0 °F 42.1 °F 62% 30.11 in 10.0 mi SSW 9.2 mph - N/A   Clear
4:53 AM 53.1 °F 42.1 °F 66% 30.13 in 10.0 mi South 8.1 mph - N/A   Clear
5:53 AM 51.1 °F 41.0 °F 68% 30.15 in 10.0 mi South 8.1 mph - N/A   Clear
6:53 AM 51.1 °F 41.0 °F 68% 30.16 in 10.0 mi South 6.9 mph - N/A   Clear
7:53 AM 52.0 °F 41.0 °F 66% 30.16 in 10.0 mi South 9.2 mph - N/A   Clear
8:53 AM 55.0 °F 41.0 °F 59% 30.16 in 10.0 mi South 16.1 mph 24.2 mph N/A   Clear
9:53 AM 57.0 °F 42.1 °F 57% 30.15 in 10.0 mi South 13.8 mph 20.7 mph N/A   Clear
11:53 AM 64.9 °F 45.0 °F 48% 30.12 in 10.0 mi South 19.6 mph 27.6 mph N/A   Clear
1:53 PM 66.0 °F 45.0 °F 47% 30.06 in 10.0 mi South 16.1 mph 33.4 mph N/A   Clear
2:53 PM 68.0 °F 44.1 °F 42% 30.04 in 10.0 mi South 19.6 mph 29.9 mph N/A   Clear
3:53 PM 66.9 °F 43.0 °F 42% 30.04 in 10.0 mi South 12.7 mph 27.6 mph N/A   Clear
4:53 PM 63.0 °F 45.0 °F 52% 30.04 in 10.0 mi South 13.8 mph 25.3 mph N/A   Clear
5:53 PM 62.1 °F 42.1 °F 48% 30.02 in 10.0 mi South 13.8 mph 21.9 mph N/A   Clear
6:53 PM 61.0 °F 37.9 °F 42% 30.02 in 10.0 mi SSE 11.5 mph - N/A   Clear
7:53 PM 61.0 °F 37.0 °F 41% 30.00 in 10.0 mi South 13.8 mph 21.9 mph N/A   Clear
8:53 PM 61.0 °F 36.0 °F 39% 30.00 in 10.0 mi South 15.0 mph 23.0 mph N/A   Clear
9:53 PM 62.1 °F 37.9 °F 41% 29.99 in 10.0 mi South 13.8 mph 21.9 mph N/A   Clear
10:53 PM 63.0 °F 41.0 °F 45% 29.98 in 10.0 mi South 20.7 mph 28.8 mph N/A   Scattered Clouds
11:53 PM 62.1 °F 41.0 °F 46% 29.97 in 10.0 mi South 18.4 mph 28.8 mph N/A   Overcast